Regional Weather Roundup
Issued by NWS

Home | Current Version | Previous Version | Text Only | Print | Product List | Glossary Off
Versions: 1 2 3 4 5 6 7 8 9 10 11 12 13 14 15 16 17 18 19 20 21 22 23 24 25 26 27 28 29 30 31 32 33 34 35 36 37 38 39 40 41 42 43 44 45 46 47 48 49 50

000
ASUS43 KIND 060009
RWRIN

WEATHER ROUNDUP FOR INDIANA
NATIONAL WEATHER SERVICE INDIANAPOLIS IN
700 PM EST THU MAR 05 2015

NOTE: "FAIR" INDICATES FEW OR NO CLOUDS BELOW 12,000 FEET WITH NO
SIGNIFICANT WEATHER AND/OR OBSTRUCTIONS TO VISIBILITY.

* - STATION DOES NOT REPORT WEATHER SUCH AS PRECIPITATION OR FOG.

+ - STATION NOT QUALITY CONTROLLED BY THE NATIONAL WEATHER SERVICE.
    USE DATA WITH CAUTION...ESPECIALLY DEWPOINT AND RELATIVE
    HUMIDITY OBSERVATIONS.

INZ001>003-010>013-019-020-060100-
NORTHWEST INDIANA

CITY           SKY/WX    TMP DP  RH WIND       PRES   REMARKS
GARY /AIRPORT/ CLEAR     18  -4  38 W9        30.51  WCI   6
KNOX *+          N/A     12  -8  40 CALM      30.50R
LA PORTE +     CLEAR     14   2  57 N3        30.50R
6HR MIN TEMP:  14; 6HR MAX TEMP:  22;

MICHIGAN CITY+ CLEAR     14  -4  44 CALM      30.51R
MONTICELLO +   CLEAR     13   2  62 W5        30.51R WCI   5
6HR MIN TEMP:  13; 6HR MAX TEMP:  20;

RENSSELAER +   CLEAR     12   3  67 W6        30.52R WCI   3
VALPARAISO     CLEAR     15  -1  49 CALM      30.50R
6HR MIN TEMP:  15; 6HR MAX TEMP:  20; 6HR PCP: TRACE;


$$

LMZ046-743>745-060100-
SOUTHERN LAKE MICHIGAN

STATION/POSITION TIME  TEMP WIND        PRES
                       AIR  DIR/SP/G
                 (UTC) (F)  (DEG/KT/KT) (MB)
MICHIGAN CITY    0000   15  330/  5/  5   N/A

$$

INZ004-005-014>016-021>024-060100-
NORTH CENTRAL INDIANA

CITY           SKY/WX    TMP DP  RH WIND       PRES   REMARKS
ELKHART        MOCLDY    16   7  67 NW7       30.49R HAZE    WCI   6
GOSHEN         CLEAR     12   2  64 W10       30.48R WCI  -1
6HR MIN TEMP:  11; 6HR MAX TEMP:  19; 6HR PCP: TRACE;

LOGANSPORT +   CLEAR     10   0  61 W5        30.52R WCI   2
ROCHESTER +    CLEAR     19   5  53 CALM      30.50R
SOUTH BEND     CLEAR     13   3  64 W3        30.50R
6HR MIN TEMP:  13; 6HR MAX TEMP:  20; 6HR PCP:  0.01;

WARSAW +       CLEAR     16   3  57 NW3       30.48R

$$

INZ006>009-017-018-025>027-060100-
NORTHEAST INDIANA

CITY           SKY/WX    TMP DP  RH WIND       PRES   REMARKS
ANGOLA *+      CLOUDY    16   3  57 CALM      30.44R
AUBURN +       LGT SNOW  18  12  79 W6        30.47R WCI   9
FORT WAYNE     PTCLDY    12   6  77 W7        30.48R WCI   1
6HR MIN TEMP:  12; 6HR MAX TEMP:  20;

HUNTINGTON +   PTCLDY    16   4  57 CALM      30.49R
6HR MIN TEMP:  16; 6HR MAX TEMP:  22;


$$

INZ028-029-035-036-043>045-051>053-060100-
WEST CENTRAL INDIANA

CITY           SKY/WX    TMP DP  RH WIND       PRES   REMARKS
CRAWFORDSVL +  CLEAR     11  -4  51 NW7       30.52R WCI   0
6HR MIN TEMP:  11; 6HR MAX TEMP:  19;

GREENCASTLE +  CLEAR     18   0  45 N8        30.51R WCI   7
LAFAYETTE      CLEAR     11   1  64 W8        30.54R WCI  -1
6HR MIN TEMP:  11; 6HR MAX TEMP:  18;

TERRE HAUTE    CLEAR     13   2  61 W9        30.55R WCI   1
6HR MIN TEMP:  13; 6HR MAX TEMP:  20;


$$

INZ030>032-037>040-046>048-054>057-064-065-060100-
CENTRAL INDIANA

CITY           SKY/WX    TMP DP  RH WIND       PRES   REMARKS
CP ATTERBURY + CLEAR     19   9  63 NW7       30.52R WCI  10
COLUMBUS       CLEAR     19   3  49 NW12      30.51R WCI   7
FRANKFORT +    CLEAR      8   2  73 SW9       30.53R WCI  -5
6HR MIN TEMP:   8; 6HR MAX TEMP:  23;

GREENWOOD *+   CLEAR     18   1  49 NW8       30.50R WCI   7
INDIANAPOLIS   PTCLDY    16   6  65 NW9       30.50R WCI   4
6HR MIN TEMP:  16; 6HR MAX TEMP:  23;

-EAGLE CREEK   CLEAR     16   5  62 NW12      30.50R WCI   3
6HR MIN TEMP:  16; 6HR MAX TEMP:  22;

KOKOMO *+      CLEAR     14   3  62 W7        30.50R WCI   4
6HR MIN TEMP:  12; 6HR MAX TEMP:  21;

MARION +       CLEAR     13   8  81 W6        30.50R WCI   3
MT COMFORT *+  MOCLDY    18   5  57 NW3       30.50R
SHELBYVILLE    CLOUDY    20   7  57 N7        30.50R WCI  11
6HR MIN TEMP:  20; 6HR MAX TEMP:  25;

ZIONSVILLE +   CLEAR     15   6  66 W3        30.51R
6HR MIN TEMP:  15; 6HR MAX TEMP:  23;


$$

INZ033-034-041-042-049-050-058-059-060100-
EAST CENTRAL INDIANA

CITY           SKY/WX    TMP DP  RH WIND       PRES   REMARKS
MUNCIE         CLEAR     15   7  70 W5        30.48R WCI   8
6HR MIN TEMP:  15; 6HR MAX TEMP:  20;


$$

INZ060-061-067>069-081>083-085>088-060100-
SOUTHWEST INDIANA

CITY           SKY/WX    TMP DP  RH WIND       PRES   REMARKS
EVANSVILLE     CLEAR     19   4  51 NW7       30.58R WCI  10
6HR MIN TEMP:  19; 6HR MAX TEMP:  24;

HUNTINGBURG *+ CLEAR     18   1  49 NW8       30.55R WCI   7
6HR MIN TEMP:  18; 6HR MAX TEMP:  23;

WASHINGTON +   CLEAR     14   1  56 NW10      30.55R WCI   1
6HR MIN TEMP:  14; 6HR MAX TEMP:  21;


$$

INZ062-063-066-070>080-084-089>092-060100-
SOUTH CENTRAL AND SOUTHEAST INDIANA

CITY           SKY/WX    TMP DP  RH WIND       PRES   REMARKS
BEDFORD +      CLEAR     21   7  53 W6        30.51R WCI  14
BLOOMINGTON    CLOUDY    19   7  59 N9        30.50R WCI   8
6HR MIN TEMP:  19; 6HR MAX TEMP:  26; 6HR PCP: TRACE;

NORTH VERNON + CLEAR     21   9  58 N5        30.50R WCI  15
SEYMOUR +      MOCLDY    23   7  50 N7        30.51R WCI  15

$$




USA.gov is the U.S. government's official web portal to all federal, state and local government web resources and services.